Content
SEND FEEDBACK

Daily
Averages
Monthly
Summary
United States of America

AGAT, GUAM


Home > North America > United States > Guam
Elevation: 364 feet     Latitude: 13 33N     Longitude: 144 50E

WEATHER
 
SELECT A DAY
Number of Records: 208,997;   Date Range: 1/1/95 - 7/26/14
 
SHARE

PRINT THIS DATA

[ ← Previous Day ]
WEATHER ALMANAC - MARCH 25, 2013
[ Next Day → ]
[ °C ]   °F
Weather ElementAverageHighLow
Temperature83.9 °F89.1 °F (1:54 pm)81 °F (4:54 am)
Dewpoint70.6 °F73.4 °F (3:30 am)66 °F (7:54 am)
Humidity64.7 %77 % (7:54 pm)50 % (1:54 pm)
Barometer29.85 in29.91 in (10:54 pm)29.80 in (4:54 pm)
Wind Speed12.7 mph18.4 mph (1:54 pm)
Wind Gust29.9 mph (7:54 am)
Weather ElementAverage
Visibility10 mi
Wind DirectionENE (79.2 °)

Weather ElementTotal
Precipitation---
Cooling Degree Days20.1 (Base 65)
Growing Degree Days35.1 (Base 50)
Averaged from 25 records on March 25, 2013
WEATHER CONDITIONS BREAKOUT
WIND DIRECTION BREAKOUT
WEATHER BY HOUR - MARCH 25, 2013
[ °C ]   °F
Local TimeTemperatureDewpointHumidityBarometerVisibilityWind DirectionWind SpeedGust SpeedPrecipitationEventsConditions
1:54 AM82.0 °F72.0 °F71 %29.84 in10.0 miEast (80°)12.7 mph19.6 mphScattered Clouds
2:54 AM82.0 °F72.0 °F71 %29.83 in10.0 miEast (80°)11.5 mphClear
3:30 AM82.4 °F73.4 °F74 %29.85 in10.0 miENE (70°)10.4 mphMostly Cloudy
3:41 AM82.4 °F73.4 °F74 %29.85 in10.0 miEast (80°)10.4 mphScattered Clouds
3:54 AM82.0 °F73.0 °F74 %29.83 in10.0 miENE (70°)11.5 mphScattered Clouds
4:54 AM81.0 °F72.0 °F74 %29.83 in10.0 miENE (70°)10.4 mphPartly Cloudy
5:54 AM81.0 °F71.1 °F72 %29.84 in10.0 miENE (70°)11.5 mphMostly Cloudy
6:54 AM82.0 °F72.0 °F71 %29.86 in10.0 miENE (70°)16.1 mph23.0 mph0.00 inMostly Cloudy
7:54 AM82.9 °F66.0 °F56 %29.88 in10.0 miEast (80°)17.3 mph29.9 mphScattered Clouds
8:54 AM84.9 °F66.0 °F53 %29.90 in10.0 miEast (90°)13.8 mph24.2 mphScattered Clouds
9:54 AM86.0 °F68.0 °F55 %29.89 in10.0 miEast (90°)13.8 mphPartly Cloudy
10:54 AM87.1 °F69.1 °F55 %29.88 in10.0 miEast (80°)15.0 mph23.0 mphPartly Cloudy
11:54 AM88.0 °F70.0 °F55 %29.86 in10.0 miEast (90°)13.8 mph23.0 mphScattered Clouds
12:54 PM88.0 °F68.0 °F51 %29.83 in10.0 miEast (80°)13.8 mph21.9 mphPartly Cloudy
1:54 PM89.1 °F68.0 °F50 %29.81 in10.0 miEast (80°)18.4 mph24.2 mphPartly Cloudy
2:54 PM87.1 °F69.1 °F55 %29.81 in10.0 miEast (90°)16.1 mph24.2 mphScattered Clouds
3:54 PM87.1 °F69.1 °F55 %29.81 in10.0 miEast (90°)15.0 mphScattered Clouds
4:54 PM86.0 °F71.1 °F61 %29.80 in10.0 miENE (70°)15.0 mphScattered Clouds
5:54 PM84.0 °F70.0 °F63 %29.82 in10.0 miEast (80°)13.8 mphScattered Clouds
6:54 PM82.9 °F71.1 °F67 %29.84 in10.0 miEast (90°)12.7 mphMostly Cloudy
7:54 PM81.0 °F73.0 °F77 %29.86 in10.0 miEast (80°)6.9 mph0.00 inScattered Clouds
8:54 PM82.0 °F72.0 °F71 %29.89 in10.0 miEast (80°)10.4 mph0.00 inRainLight Rain
9:54 PM82.0 °F72.0 °F71 %29.90 in10.0 miEast (80°)9.2 mphPartly Cloudy
10:54 PM82.0 °F72.0 °F71 %29.91 in10.0 miENE (70°)8.1 mphPartly Cloudy
11:54 PM82.0 °F72.0 °F71 %29.90 in10.0 miENE (70°)9.2 mphClear
Hourly data recorded from PGUM, located miles away from Agat, Guam







STORIES FROM OUR PARTNERS